Weather History for KSXT - October, 2012

Change the Weather History Date:

Sunday, October 7, 2012

  Actual Average Record
Temperature  
Mean Temperature 60 °F -  
Max Temperature 70 °F 59 °F 77 °F (2000)
Min Temperature 52 °F 43 °F 36 °F (1997)
Degree Days  
Heating Degree Days 4    
Growing Degree Days 10 (Base 50)    
Moisture  
Dew Point 27 °F    
Average Humidity 30    
Maximum Humidity 45    
Minimum Humidity 17    
Precipitation  
Precipitation 0.00 in - - ()
Sea Level Pressure  
Sea Level Pressure 29.92 in    
Wind  
Wind Speed 8 mph (ENE)    
Max Wind Speed 14 mph    
Max Gust Speed 20 mph    
Visibility 10 miles    
Events      
Averages and records for this station are not official NWS values.
T = Trace of Precipitation, MM = Missing Value Source: NWS Daily Summary

Daily Weather History Graph

Daily Weather History Graph

Search for Another Location

Airport or City:

Trip Planner

Search our weather history database for the weather conditions in past years. The results will help you decide how hot, cold, wet, or windy it might be!

Date:

Astronomy

Oct. 07, 2012 Rise Set
Actual Time 7:18 AM PDT 6:43 PM PDT
Civil Twilight 6:49 AM PDT 7:11 PM PDT
Nautical Twilight 6:17 AM PDT 7:44 PM PDT
Astronomical Twilight 5:44 AM PDT 8:16 PM PDT
Moon 11:55 PM PDT (10/7) 2:04 PM PDT (10/7)
Length of Visible Light 12h 21m
Length of Day
11h 25m
Waning Gibbous, 55% of the Moon is Illuminated
Oct 7
Waning Gibbous
Oct 8
Last Quarter
Oct 15
New
Oct 21
First Quarter
Oct 29
Full

Hourly Weather History & Observations

Time (PDT) Temp. Dew Point Humidity Pressure Visibility Wind Dir Wind Speed Gust Speed Precip Events Conditions
12:56 AM 55.0 °F 32.0 °F 42% 29.94 in 10.0 mi ESE 6.9 mph - N/A   Clear
1:56 AM 53.1 °F 32.0 °F 45% 29.95 in 10.0 mi East 5.8 mph - N/A   Clear
2:56 AM 54.0 °F 32.0 °F 43% 29.93 in 10.0 mi ESE 9.2 mph - N/A   Clear
3:56 AM 53.1 °F 30.9 °F 43% 29.95 in 10.0 mi ESE 8.1 mph - N/A   Clear
4:56 AM 52.0 °F 28.9 °F 41% 29.95 in 10.0 mi ESE 11.5 mph - N/A   Clear
5:56 AM 54.0 °F 24.1 °F 31% 29.94 in 10.0 mi ESE 11.5 mph - N/A   Clear
6:56 AM 54.0 °F 21.9 °F 29% 29.96 in 10.0 mi ESE 11.5 mph - N/A   Clear
7:56 AM 55.0 °F 21.9 °F 28% 29.97 in 10.0 mi ESE 13.8 mph - N/A   Clear
8:56 AM 59.0 °F 19.9 °F 22% 29.96 in 10.0 mi ESE 12.7 mph - N/A   Clear
9:56 AM 62.1 °F 21.9 °F 21% 29.97 in 10.0 mi ESE 10.4 mph - N/A   Clear
10:56 AM 64.9 °F 19.9 °F 18% 29.96 in 10.0 mi ESE 10.4 mph 17.3 mph N/A   Clear
11:56 AM 68.0 °F 21.0 °F 17% 29.93 in 10.0 mi ESE 8.1 mph - N/A   Clear
12:56 PM 69.1 °F 26.1 °F 20% 29.93 in 10.0 mi ESE 8.1 mph - N/A   Clear
1:56 PM 69.1 °F 26.1 °F 20% 29.91 in 10.0 mi Variable 3.5 mph - N/A   Clear
2:56 PM 69.1 °F 30.0 °F 23% 29.89 in 10.0 mi Calm Calm - N/A   Clear
3:56 PM 66.9 °F 28.9 °F 24% 29.89 in 10.0 mi NW 3.5 mph - N/A   Clear
4:56 PM 66.0 °F 28.9 °F 25% 29.88 in 10.0 mi Variable 4.6 mph - N/A   Clear
5:56 PM 64.0 °F 30.0 °F 28% 29.88 in 10.0 mi Variable 5.8 mph - N/A   Clear
6:56 PM 60.1 °F 26.1 °F 27% 29.89 in 10.0 mi North 8.1 mph - N/A   Clear
7:56 PM 57.9 °F 25.0 °F 28% 29.89 in 10.0 mi NNW 10.4 mph 19.6 mph N/A   Clear
8:56 PM 57.0 °F 27.0 °F 32% 29.90 in 10.0 mi NNW 10.4 mph - N/A   Clear
9:56 PM 55.9 °F 28.0 °F 34% 29.89 in 10.0 mi North 11.5 mph - N/A   Clear
10:56 PM 54.0 °F 30.0 °F 40% 29.89 in 10.0 mi North 8.1 mph - N/A   Clear
11:56 PM 54.0 °F 30.9 °F 41% 29.88 in 10.0 mi North 8.1 mph - N/A   Clear